Vertical_Velocity
4 3 3 4 2 0 -4 -2 -2 -2 -1 -0 -2 -2 -0 -1 -1 2 -5 -4 -4 -4 -3 -2 -1 -2 -3 -2 2 -2 -1 -4
5 4 3 3 2 -3 -9 -4 -1 0 -1 -2 3 3 0 -1 5 -3 4 0 -2 -2 -3 -3 -4 -2 -4 -4 -4 2 -9 -7
5 4 3 3 -0 -4 -5 -5 1 2 4 4 4 1 -0 -1 1 -5 -2 -5 -4 -4 -1 -3 -4 -4 -4 -5 -1 2 -2 -7
4 2 1 3 2 3 -1 -4 -5 -1 -0 -3 -5 -2 -3 -6 -3 -2 -8 -6 -5 -5 -3 -3 -5 -5 -5 -8 -9 -3 3 -5
5 4 6 2 3 -1 -6 -1 5 -1 -2 -1 0 1 -6 1 -1 -5 -3 -4 -4 -5 -6 -2 -2 -4 -4 -5 -6 -6 -5 2
2 4 4 5 -1 -2 2 2 2 6 4 3 0 -4 -3 -2 -1 -6 -2 -3 -3 -2 -4 -1 -7 -4 -1 -1 -7 -5 -4 -5
-2 -2 -4 -2 -4 8 9 2 1 7 2 -1 -2 -1 -4 -0 -3 -2 -1 -6 -5 1 -5 -1 -4 -3 -4 -3 -1 -5 -2 -4
-2 -3 0 6 1 3 6 1 1 -1 -3 2 2 -2 -3 -2 -1 -2 -2 -2 -2 2 -1 1 -2 -1 -0 0 -4 0 1 0
-6 -3 -0 -2 -0 3 4 2 -1 -1 1 3 -4 -2 2 -2 -3 -3 -2 2 -0 -1 -1 -2 -1 -0 1 0 -1 1 -0 -1
2 2 1 4 8 -3 -3 2 -3 -4 -5 -1 1 -1 -2 -2 0 -1 1 -0 -1 1 -1 -1 0 -1 -1 -2 -1 -2 -3 -3
-1 -1 -1 -1 -3 -4 -2 -2 -4 -4 -1 -0 2 0 1 1 -1 -2 -1 -0 -1 -2 -2 -1 -1 -2 -1 0 1 1 -0 -1
1 -0 1 -2 -3 -0 0 -3 -0 0 2 1 1 0 1 1 -1 -1 -0 -1 -1 -1 -1 -2 -2 -1 -0 -0 0 1 0 1
2 -1 4 1 2 0 0 1 2 1 1 2 1 -1 2 0 -1 -0 -0 -1 -1 -1 -2 -1 -2 -1 -1 -1 -0 -0 -1 -0
2 2 0 0 1 0 -1 -1 -1 1 1 0 1 -1 -1 -0 -0 -0 -1 -1 -1 -2 -2 -1 -1 -1 -0 -1 0 -0 -1 -1
2 0 -1 -0 1 1 -1 -2 1 1 2 -2 0 -1 -1 -1 0 -0 0 -1 -1 -1 -2 -2 -2 -2 -2 -1 -2 -1 -0 -1
2 0 0 1 0 -2 -1 -1 -1 1 0 -1 -0 -1 -1 1 1 0 -1 0 -2 -3 -3 -2 -2 -2 -2 -2 -0 -0 -1 -1
-1 0 1 0 0 -0 -1 -1 0 1 0 -2 1 -0 1 0 0 1 -1 -1 -1 -2 -2 -3 -3 -2 -1 0 1 0 0 -0
-0 1 -0 1 1 -0 -2 1 0 1 -0 0 1 -0 0 0 0 -2 -1 -1 -1 -1 -2 -2 -1 -2 -2 -1 -1 -0 1 1
-2 1 3 3 1 0 1 -1 1 1 0 0 1 1 -0 0 -1 -1 -0 -0 -1 -2 -2 -1 -1 -1 -1 -2 -2 -2 -2 -1
Height
5746 5746 5744 5743 5742 5739 5736 5734 5733 5729 5726 5725 5723 5722 5718 5715 5712 5709 5707 5704 5701 5698 5696 5694 5693 5692 5692 5692 5692 5692 5692 5695
5736 5736 5735 5733 5729 5725 5722 5721 5719 5716 5714 5713 5711 5708 5705 5703 5700 5697 5693 5690 5687 5684 5681 5678 5676 5674 5674 5673 5673 5673 5672 5674
5723 5722 5721 5719 5717 5715 5711 5708 5705 5705 5704 5701 5698 5696 5694 5692 5689 5685 5681 5678 5674 5671 5667 5664 5661 5658 5656 5654 5653 5653 5652 5653
5710 5709 5708 5707 5704 5700 5696 5692 5694 5696 5694 5690 5688 5686 5684 5681 5678 5675 5671 5666 5662 5659 5655 5651 5647 5643 5640 5638 5636 5635 5633 5633
5699 5699 5698 5695 5691 5687 5684 5686 5686 5684 5682 5679 5677 5674 5672 5669 5666 5663 5659 5655 5651 5647 5643 5638 5634 5630 5626 5623 5619 5618 5617 5616
5688 5687 5685 5682 5678 5677 5677 5676 5675 5674 5670 5668 5666 5663 5661 5658 5655 5653 5648 5644 5640 5636 5632 5628 5623 5619 5615 5611 5608 5604 5602 5601
5675 5673 5672 5670 5669 5669 5667 5665 5665 5663 5660 5658 5656 5653 5651 5648 5644 5642 5638 5634 5631 5626 5623 5619 5614 5610 5604 5601 5597 5594 5591 5588
5665 5664 5664 5663 5662 5661 5659 5656 5655 5653 5652 5650 5646 5645 5641 5638 5635 5632 5629 5625 5621 5616 5613 5607 5602 5598 5594 5591 5588 5585 5582 5578
5657 5656 5655 5653 5653 5651 5648 5647 5646 5644 5643 5640 5639 5635 5632 5629 5626 5623 5618 5614 5610 5607 5603 5598 5592 5588 5586 5583 5580 5577 5573 5569
5647 5647 5646 5645 5642 5641 5639 5639 5638 5637 5635 5633 5629 5627 5624 5621 5617 5613 5609 5605 5602 5598 5594 5589 5585 5582 5578 5576 5573 5570 5567 5563
5638 5637 5637 5637 5636 5634 5632 5631 5630 5628 5626 5624 5621 5619 5616 5612 5608 5604 5600 5597 5593 5589 5585 5581 5578 5574 5572 5569 5566 5563 5560 5557
5630 5629 5629 5628 5626 5624 5623 5622 5621 5619 5617 5615 5613 5610 5607 5604 5600 5596 5593 5589 5584 5580 5576 5573 5570 5567 5564 5562 5559 5556 5554 5551
5624 5623 5622 5620 5617 5616 5615 5613 5612 5610 5608 5606 5604 5601 5599 5596 5592 5589 5585 5581 5576 5573 5568 5565 5562 5559 5557 5555 5553 5550 5547 5545
5614 5613 5612 5611 5608 5605 5605 5604 5602 5601 5599 5598 5595 5593 5591 5588 5585 5582 5578 5574 5570 5566 5562 5558 5555 5553 5551 5549 5547 5545 5542 5540
5603 5602 5601 5599 5597 5596 5596 5595 5594 5592 5591 5589 5587 5586 5584 5581 5579 5576 5572 5568 5564 5560 5556 5552 5550 5548 5546 5544 5542 5539 5537 5535
5593 5591 5589 5589 5589 5588 5588 5587 5585 5584 5582 5581 5580 5579 5577 5575 5572 5570 5567 5563 5559 5555 5551 5548 5546 5544 5542 5540 5537 5534 5531 5529
5582 5581 5581 5581 5581 5581 5580 5578 5577 5576 5575 5575 5575 5573 5571 5569 5567 5564 5561 5557 5554 5550 5547 5544 5542 5540 5538 5535 5533 5530 5527 5524
5574 5574 5574 5574 5573 5572 5571 5570 5570 5570 5570 5570 5569 5568 5566 5563 5562 5559 5556 5554 5550 5546 5543 5541 5538 5536 5533 5530 5528 5525 5522 5520
5568 5568 5567 5566 5564 5564 5564 5564 5564 5564 5564 5564 5564 5562 5560 5559 5557 5554 5552 5549 5545 5542 5539 5536 5533 5531 5528 5525 5522 5519 5517 5514